Location: Corralito
(10.2667°N, 66.9500°W)
Time: 23:43:38
(UTC+00:00)

Cosmos 1190 Rocket - Pass Details

Date: 09 December 2023
Orbit: 756 x 777 km, 74.1° (Epoch: 26 February)

Event Time Altitude Azimuth Distance (km) Brightness Sun altitude
Rises 23:43:13 0° 326° (NW) 3,234 7.4 -23.0°
Reaches altitude 10° 23:46:00 10° 312° (NW) 2,304 6.8 -23.6°
Maximum altitude 23:50:07 24° 260° (W) 1,552 6.3 -24.6°
Drops below altitude 10° 23:54:15 10° 207° (SSW) 2,294 7.0 -25.5°
Sets 23:57:01 0° 193° (SSW) 3,215 7.7 -26.2°
